EHI
0 0 0 0 0 0 0 0 0 0 0 0 0 0 0 0 0 0 0 11 38 43 17 0 0 0 0 0 0 0 0 0 0 0 0 0 0 0 0 0 0 0 0 0 0 0 0 0 0
0 0 0 0 0 0 0 0 0 0 0 0 0 0 0 0 0 0 0 11 32 34 12 0 0 0 0 0 0 0 0 0 0 0 0 0 0 0 0 0 0 0 0 0 0 0 0 0 0
0 0 0 0 0 0 0 0 0 0 0 0 0 0 0 0 0 0 0 7 18 17 6 1 0 0 0 0 0 0 0 0 0 0 0 0 0 0 0 0 0 0 0 0 0 0 0 0 0
0 0 0 0 0 0 0 0 0 0 0 0 0 0 0 0 0 0 0 3 7 13 13 8 3 2 0 0 0 0 0 0 0 0 0 0 0 0 0 0 0 0 0 0 0 0 0 0 0
0 0 0 0 0 0 0 0 0 0 0 0 0 0 0 0 0 0 0 0 9 29 34 20 12 7 1 0 0 0 0 0 0 0 0 0 0 0 0 0 0 0 0 0 0 0 0 0 0
0 0 0 0 0 0 0 0 0 0 0 0 0 0 0 0 0 0 0 0 14 45 49 28 17 11 2 0 0 0 0 0 0 0 0 0 0 0 0 0 0 0 0 0 0 0 0 0 0
0 0 0 0 0 0 0 0 0 0 0 0 0 0 0 0 0 0 0 0 13 44 51 26 11 6 1 0 0 0 0 0 0 0 0 0 0 0 0 0 0 0 0 0 0 0 0 0 0
0 0 0 0 0 0 0 0 0 0 0 0 0 0 0 0 0 0 0 0 7 30 39 19 3 1 0 0 0 0 0 0 0 0 0 0 0 0 0 0 0 0 0 0 0 0 0 0 0
0 0 0 0 0 0 0 0 0 0 0 0 0 0 0 0 0 0 0 0 2 13 20 11 1 0 0 0 0 0 0 0 0 0 0 0 0 0 0 0 0 0 0 0 0 0 0 0 0
0 0 0 0 0 0 0 0 0 0 0 0 0 0 0 0 0 0 0 0 0 3 6 11 15 16 13 9 4 0 0 0 0 0 0 0 0 0 0 0 0 0 0 0 0 0 0 0 0
0 0 0 0 0 0 0 0 0 0 0 0 0 0 0 0 0 0 0 0 0 0 3 21 45 52 44 31 11 0 0 0 0 0 0 0 0 0 0 0 0 0 0 0 0 0 0 0 0
0 0 0 0 0 0 0 0 0 0 0 0 0 0 0 0 0 0 0 0 0 2 11 37 71 85 78 54 20 1 0 0 0 0 0 0 0 0 0 0 0 0 0 0 0 0 0 0 0
0 0 0 0 0 0 0 0 0 0 0 0 0 0 0 0 0 0 0 0 0 7 27 57 85 97 94 74 38 10 1 0 0 0 0 0 0 0 0 0 0 0 0 0 0 0 0 0 0
0 0 0 0 0 0 0 0 0 0 0 0 0 0 0 0 0 0 0 0 0 8 32 67 90 99 99 90 63 27 6 1 0 0 0 0 0 0 0 0 0 0 0 0 0 0 0 0 0
0 0 0 0 0 0 0 0 0 0 0 0 0 0 0 0 0 0 0 0 0 3 20 53 83 97 100 98 82 49 19 5 1 0 0 0 0 0 0 0 0 0 0 0 0 0 0 0 0
0 0 0 0 0 0 0 0 0 0 0 0 0 0 0 0 0 0 0 0 0 0 7 31 68 92 99 99 89 66 37 19 9 3 0 0 0 0 0 0 0 0 0 0 0 0 0 0 0
0 0 0 0 0 0 0 0 0 0 0 0 0 0 0 0 0 0 0 0 0 0 1 16 50 81 96 98 91 74 56 43 28 12 2 0 0 0 0 0 0 0 0 0 0 0 0 0 0
0 0 0 0 0 0 0 0 0 0 0 0 0 0 0 0 0 0 0 0 0 0 0 7 29 62 88 97 92 80 73 66 47 18 2 0 0 0 0 0 0 0 0 0 0 0 0 0 0
0 0 0 0 0 0 0 0 0 0 0 0 0 0 0 0 0 0 0 0 0 0 0 2 12 37 71 93 96 91 82 67 40 14 1 0 0 0 0 0 0 0 0 0 0 0 0 0 0
0 0 0 0 0 0 0 0 0 0 0 0 0 0 0 0 0 0 0 0 0 0 0 0 3 19 53 86 96 86 65 37 17 5 0 0 0 0 0 0 0 0 0 0 0 0 0 0 0
0 0 0 0 0 0 0 0 0 0 0 0 0 0 0 0 0 0 0 0 0 0 0 0 2 14 45 80 87 63 29 9 2 0 0 0 0 0 0 0 0 0 0 0 0 0 0 0 0
0 0 0 0 0 0 0 0 0 0 0 0 0 0 0 0 0 0 0 0 0 0 0 0 3 19 51 79 74 39 9 0 0 0 0 0 0 0 0 0 0 0 0 0 0 0 0 0 0
0 0 0 0 0 0 0 0 0 0 0 0 0 0 0 0 0 0 0 0 0 0 0 1 7 27 57 75 58 24 3 0 0 0 0 0 0 0 0 0 0 0 0 0 0 0 0 0 0
0 0 0 0 0 0 0 0 0 0 0 0 0 0 0 0 0 0 0 0 0 0 0 3 11 30 55 62 41 13 1 0 0 0 0 0 0 0 0 0 0 0 0 0 0 0 0 0 0
0 0 0 0 0 0 0 0 0 0 0 0 0 0 0 0 0 0 0 0 0 0 1 5 11 26 44 45 24 6 0 0 0 0 0 0 0 0 0 0 0 0 0 0 0 0 0 0 0
0 0 0 0 0 0 0 0 0 0 0 0 0 0 0 0 0 0 0 0 0 0 2 5 7 16 27 25 10 1 0 0 0 0 0 0 0 0 0 0 0 0 0 0 0 0 0 0 0
0 0 0 0 0 0 0 0 0 0 0 0 0 0 0 0 0 0 0 0 0 0 1 2 3 6 11 8 2 0 0 0 0 0 0 0 0 0 0 0 0 0 0 0 0 0 0 0 0
0 0 0 0 0 0 0 0 0 0 0 0 0 0 0 0 0 0 0 0 0 0 0 0 0 1 2 1 0 0 0 0 0 0 0 0 0 0 0 0 0 0 0 0 0 0 0 0 0
0 0 0 0 0 0 0 0 0 0 0 0 0 0 0 0 0 0 0 0 0 0 0 0 0 0 0 0 0 0 0 0 0 0 0 0 0 0 0 0 0 0 0 0 0 0 0 0 0
0 0 0 0 0 0 0 0 0 0 0 0 0 0 0 0 0 0 0 0 0 0 0 0 0 0 0 0 0 0 0 0 0 0 0 0 0 0 0 0 0 0 0 0 0 0 0 0 0
Wind_Speed
15 14 8 3 3 5 9 11 7 2 2 5 7 5 8 8 6 5 4 7 16 17 17 16 18 17 15 14 13 11 10 10 11 11 12 12 11 11 11 11 12 12 11 11 12 12 11 11 10
10 12 6 3 4 7 10 12 6 2 4 7 4 4 7 6 8 9 5 8 16 18 16 15 18 17 16 15 13 11 10 11 12 12 12 11 10 10 10 11 11 11 11 11 11 11 10 10 9
10 11 5 4 6 9 11 5 3 7 5 1 5 5 6 2 7 7 7 8 14 16 15 16 18 17 16 15 13 12 11 11 11 11 10 10 9 9 9 10 10 10 10 9 9 9 8 8 7
6 4 4 6 12 12 12 10 4 4 1 4 4 5 2 6 5 9 10 8 13 14 15 17 17 17 16 15 14 13 11 11 11 10 9 8 7 7 7 9 10 9 8 8 8 8 7 7 6
3 3 7 10 14 13 12 9 6 1 4 3 3 6 2 6 10 12 9 8 12 14 17 17 18 18 16 15 13 13 12 11 10 10 9 8 6 6 8 11 10 8 7 7 7 7 6 6 6
4 4 7 11 14 13 12 12 3 4 7 7 2 6 1 7 8 9 8 6 9 14 17 15 18 17 16 15 14 13 12 12 10 9 9 8 6 5 9 12 11 8 7 6 6 6 7 7 6
6 6 10 12 11 11 11 9 6 5 8 8 4 5 2 7 8 7 8 7 9 13 16 13 13 13 15 15 14 12 11 11 10 9 9 9 8 9 12 12 10 8 7 7 7 8 7 7 6
5 5 11 12 12 11 10 7 5 4 6 7 2 2 4 5 5 6 7 5 8 10 14 13 12 11 10 10 13 13 11 10 9 9 10 9 8 10 11 10 10 9 9 8 8 7 6 6 5
5 6 10 10 9 9 9 8 3 3 4 8 3 2 7 4 4 6 5 4 5 7 11 13 13 12 11 10 12 11 11 10 9 9 10 9 5 6 7 10 10 10 10 8 7 5 5 4 3
5 7 11 9 9 8 7 7 2 3 7 8 7 4 8 7 5 6 7 7 7 6 7 11 13 12 11 10 9 6 7 7 6 6 7 5 4 5 9 10 10 10 10 8 6 4 2 2 1
7 7 8 11 11 8 7 8 5 6 7 7 8 8 8 8 7 7 7 8 11 10 8 7 10 11 10 8 8 6 5 6 7 9 8 5 5 5 6 4 5 5 7 4 4 2 1 3 2
9 9 9 9 7 6 6 7 9 9 7 8 8 7 3 5 6 6 7 6 8 13 11 8 8 9 9 8 8 6 5 6 5 6 8 4 3 4 4 4 5 4 3 2 2 1 3 4 4
12 10 9 7 6 6 7 8 9 12 11 11 12 10 8 5 4 6 6 6 5 8 12 10 9 9 8 8 6 6 6 6 5 5 5 6 4 3 4 4 3 4 3 3 3 4 4 4 4
5 7 9 9 7 7 10 11 11 12 11 12 12 11 10 8 7 8 8 6 6 7 10 11 11 10 9 8 6 6 6 6 5 5 5 6 5 4 5 5 4 4 4 3 3 4 3 3 3
6 8 10 10 11 7 8 12 15 17 15 15 13 12 12 11 10 10 10 8 7 8 9 11 12 11 11 9 7 6 6 6 6 6 6 6 6 6 6 5 4 3 3 4 4 4 3 3 3
5 7 7 9 13 11 9 11 10 12 14 15 13 12 12 12 12 12 12 10 8 7 9 11 11 12 12 10 8 5 5 7 6 7 6 7 8 8 6 5 4 4 4 4 3 3 3 3 4
6 6 10 8 8 6 9 9 9 8 6 7 7 8 9 10 12 12 12 11 10 9 8 10 12 13 13 11 8 7 6 7 7 7 6 7 9 9 7 5 4 5 4 4 4 4 3 3 3
5 8 9 7 5 5 8 10 9 10 10 9 8 8 8 9 9 9 9 10 10 9 8 9 12 12 13 11 8 6 6 6 6 7 8 10 9 9 8 6 6 6 4 4 4 3 3 3 2
9 9 10 9 8 5 8 12 12 11 12 12 11 10 10 10 9 8 8 8 8 8 8 8 10 11 11 10 10 9 8 6 6 6 10 10 10 10 8 7 7 6 4 4 4 3 4 3 3
6 8 10 10 7 8 11 17 15 17 18 16 14 12 11 11 11 11 10 9 9 9 8 8 8 11 11 10 9 7 5 5 5 5 7 9 10 9 8 9 7 6 5 6 5 3 3 2 3
7 8 8 10 12 9 10 14 12 13 15 15 13 12 11 11 12 11 11 11 10 10 9 8 9 10 11 11 8 7 6 5 4 5 5 6 8 8 8 9 8 7 6 5 5 4 4 2 2
6 3 5 7 6 5 5 9 7 7 6 7 9 10 9 9 10 10 10 11 11 11 10 9 9 10 12 13 12 14 11 8 7 6 5 6 7 8 9 9 9 7 6 6 5 5 3 2 2
2 6 5 6 6 7 5 8 13 7 10 10 9 9 9 9 9 9 9 10 9 9 10 10 10 10 12 13 14 14 9 7 9 9 9 7 6 8 10 10 8 8 6 7 6 5 4 2 2
2 1 4 4 3 7 7 9 14 4 8 5 3 3 4 6 6 5 4 4 5 6 6 8 11 11 12 13 13 13 13 13 15 14 12 9 7 7 9 10 8 7 7 6 6 5 4 3 2
4 3 2 3 5 10 9 11 13 5 5 4 4 5 5 4 3 2 2 4 5 6 6 6 9 11 13 13 14 13 13 16 17 16 14 13 10 8 9 10 7 7 7 6 5 4 4 2 2
8 6 4 4 5 4 5 11 9 6 6 6 6 6 6 6 4 2 2 3 5 6 5 6 8 10 12 13 12 12 12 12 11 11 11 11 10 9 10 10 9 8 8 7 5 4 3 2 1
7 7 4 5 6 7 9 8 9 9 11 9 8 8 8 7 5 3 2 2 5 6 6 7 9 9 11 12 11 11 13 13 13 11 10 9 10 11 11 11 10 8 7 7 5 3 3 3 2
5 4 3 3 4 8 10 8 6 5 7 7 5 3 5 6 4 1 2 3 5 6 5 6 9 10 10 12 11 10 12 13 13 12 12 13 13 13 13 11 9 8 7 6 4 2 3 2 1
8 4 5 4 5 5 8 7 3 7 8 8 7 5 5 3 0 1 2 4 5 6 4 6 8 10 11 12 12 12 12 13 13 11 12 13 13 13 12 11 9 8 6 5 4 3 3 1 1
9 9 9 5 6 6 8 11 4 5 5 6 7 7 5 3 1 1 1 2 4 6 4 5 7 10 13 14 13 13 12 13 13 12 13 13 13 12 11 9 8 7 6 5 3 1 1 1 2
Wind_Direction
299 281 269 265 250 238 248 257 260 79 16 8 15 353 317 326 36 92 187 122 123 132 139 145 141 139 135 129 123 118 114 114 111 108 109 110 109 109 105 93 81 73 71 72 71 68 66 65 65
288 288 287 247 241 252 254 247 235 157 63 29 338 267 267 275 102 114 116 115 129 132 141 144 143 142 138 134 129 124 121 120 115 112 113 111 110 112 109 97 87 80 79 78 75 71 69 67 64
264 271 270 240 228 243 268 310 35 81 61 296 267 233 239 356 81 105 128 136 132 135 145 141 146 145 142 139 136 132 129 128 121 114 111 110 113 115 112 103 97 91 87 81 75 70 68 66 65
257 239 235 241 247 243 254 278 72 70 194 217 270 277 164 68 66 106 131 151 137 140 137 142 147 147 146 145 144 141 137 136 126 114 109 107 113 120 117 112 110 102 89 76 66 62 63 64 64
231 250 231 234 243 254 268 274 112 125 275 251 229 281 72 90 101 117 146 162 145 139 134 149 150 152 152 151 150 148 146 145 136 125 115 106 106 121 129 127 121 109 89 71 60 59 64 67 64
213 222 231 235 242 242 246 262 174 193 260 265 246 273 107 127 115 130 144 165 145 132 137 150 154 156 156 155 154 155 155 155 150 139 125 107 95 115 135 132 126 112 91 74 65 67 73 72 64
233 234 242 247 252 251 246 235 179 202 246 260 240 253 128 95 101 127 144 176 142 134 139 149 157 160 160 158 156 159 161 162 160 154 133 114 97 106 126 130 126 114 99 86 81 83 84 83 75
243 257 247 246 255 263 274 269 174 199 256 274 315 287 60 90 125 132 141 152 136 136 142 154 159 163 163 162 159 160 162 163 163 152 137 134 125 122 125 120 120 117 110 101 96 99 102 100 91
251 244 242 241 248 261 269 281 198 169 263 283 241 214 106 97 114 123 123 122 135 149 151 159 164 167 166 166 163 159 159 162 159 147 154 156 166 154 133 122 124 124 122 117 115 121 130 127 115
215 239 239 252 269 284 284 286 271 227 219 247 261 216 133 144 162 168 167 169 165 177 175 165 168 166 166 166 157 165 167 162 170 170 176 195 191 138 129 132 132 135 132 129 137 153 208 201 114
210 234 252 261 275 302 320 322 313 267 249 233 230 221 171 171 180 196 201 187 175 178 185 177 160 160 163 155 163 170 171 167 192 181 187 180 125 121 133 137 136 143 147 153 171 187 94 60 65
242 245 242 263 300 333 316 308 302 287 276 288 299 310 269 186 198 209 213 223 183 173 175 176 154 156 162 161 171 168 168 169 192 172 170 148 140 166 165 155 161 154 139 112 89 69 67 41 38
236 257 272 278 294 300 295 283 284 281 285 288 292 295 296 280 256 258 229 215 206 169 168 172 163 165 168 166 171 171 171 168 177 157 159 149 147 166 129 104 104 103 109 104 71 55 45 37 34
273 273 268 268 260 251 255 258 256 258 263 265 266 269 270 265 255 264 264 224 209 184 167 168 170 171 169 171 173 176 174 164 166 154 166 156 154 142 111 99 92 88 86 80 78 74 48 46 29
301 290 281 261 248 238 251 253 242 246 246 250 250 248 247 247 246 247 252 245 211 194 177 171 173 173 172 174 177 179 175 166 163 158 171 162 139 122 114 113 112 113 105 83 60 61 49 46 12
239 250 252 239 217 217 219 254 253 244 230 232 237 241 241 237 233 238 243 244 234 210 186 179 175 172 170 173 181 184 180 169 164 160 167 152 131 125 119 122 124 119 100 88 74 43 51 45 24
214 242 244 244 173 190 215 251 259 271 263 245 241 241 241 238 231 228 231 234 234 225 200 179 170 171 169 170 179 190 188 172 165 162 158 139 128 127 127 128 129 114 99 93 86 58 53 42 7
211 228 250 250 165 198 240 259 270 281 278 261 249 247 248 248 242 235 231 230 230 230 213 182 169 169 165 166 175 190 193 174 161 151 141 133 133 134 130 134 127 112 108 110 111 111 74 43 348
302 316 306 305 328 313 271 271 268 267 263 254 244 240 244 251 255 249 239 238 238 233 221 191 172 170 163 167 179 188 189 165 142 133 136 136 140 140 140 135 125 123 123 119 112 113 88 32 355
276 283 284 291 303 308 291 281 272 259 252 247 245 242 240 244 250 250 242 233 233 235 221 198 176 172 169 171 180 181 148 121 109 117 126 137 143 143 141 133 128 122 114 99 89 86 104 61 32
250 258 275 295 321 307 291 283 255 248 236 234 235 236 239 244 248 251 246 236 227 228 225 206 190 177 169 163 159 136 108 94 96 114 127 139 142 139 135 130 125 125 119 117 112 96 94 118 66
255 279 285 289 295 291 309 295 271 284 285 245 220 214 222 238 247 248 246 243 232 221 217 211 195 180 167 163 167 164 165 159 160 146 136 137 137 135 130 127 127 122 118 120 117 103 97 92 99
242 22 342 312 296 290 249 261 272 228 253 246 234 218 213 227 240 244 242 239 236 225 213 205 193 177 165 168 172 171 166 141 131 133 139 141 138 130 126 125 124 123 121 118 113 106 91 83 88
217 55 282 260 275 264 220 222 272 221 244 262 285 270 231 234 244 253 265 272 262 249 226 205 188 172 165 169 172 170 165 152 147 150 152 151 141 130 126 124 122 119 116 116 117 112 100 89 86
197 181 254 223 226 246 225 225 251 251 263 272 274 275 279 280 283 294 329 314 292 267 239 208 185 168 164 170 173 173 168 155 155 156 157 153 148 143 138 132 127 122 119 120 123 121 124 123 107
194 197 225 257 258 275 247 241 253 253 252 244 234 230 239 252 260 277 326 316 297 275 240 200 180 165 166 172 171 171 155 149 153 155 156 154 150 143 139 133 128 126 125 127 130 128 135 127 153
175 216 276 315 302 280 253 258 278 261 263 255 240 225 225 233 230 240 300 308 299 282 247 199 180 171 170 169 163 159 148 146 147 149 150 144 139 139 136 130 129 129 129 134 139 142 151 151 188
243 196 194 212 265 276 270 255 260 343 360 349 323 278 248 241 231 255 345 331 306 285 248 197 182 176 168 159 150 145 141 139 143 149 148 141 139 137 134 129 126 124 124 127 127 124 120 119 242
204 223 211 234 250 268 286 267 323 332 319 311 305 297 278 259 149 33 345 336 319 302 254 195 184 170 155 141 133 132 133 136 140 141 137 135 134 133 131 129 125 127 131 132 135 157 152 176 269
204 201 197 218 238 233 269 274 284 295 332 333 323 318 315 302 291 295 334 348 321 298 263 201 176 151 134 127 126 128 130 133 133 131 128 128 127 124 124 123 120 119 115 110 111 118 128 228 258